Mexia Limestone County Airpor, TX

5:47 PM CST on November 15, 2019 (GMT -0600)
Mexia-Limestone County

Weather History for KLXY - October, 2019

Change the Weather History Date:

Wednesday, October 23, 2019

  Actual Average (WUND) Record (WUND)
Temperature  
Mean Temperature 66 °F -  
Max Temperature 81 °F - - (-1)
Min Temperature 50 °F - - (-1)
Growing Degree Days 16 (Base 50)    
Moisture  
Dew Point 48 °F    
Average Humidity 54    
Maximum Humidity 74    
Minimum Humidity 35    
Precipitation  
Precipitation 0.00 in - - ()
Sea Level Pressure  
Sea Level Pressure 30.05 in    
Wind  
Wind Speed 9 mph (SSE)    
Max Wind Speed 21 mph    
Max Gust Speed 31 mph    
Visibility 10 miles    
Events      
Averages and records for this station are not official NWS values.
T = Trace of Precipitation, MM = Missing Value Source: NWS Daily Summary

Daily Weather History Graph

Daily Weather History Graph

Search for Another Location

Airport or City:

Astronomy

Oct. 23, 2019 Rise Set
Actual Time 7:34 AM CDT 6:45 PM CDT
Civil Twilight 7:10 AM CDT 7:10 PM CDT
Nautical Twilight 6:41 AM CDT 7:38 PM CDT
Astronomical Twilight 6:13 AM CDT 8:06 PM CDT
Moon 2:21 AM CDT (10/23) 4:12 PM CDT (10/23)
Length of Visible Light 11h 59m
Length of Day
11h 10m
Waning Crescent, 26% of the Moon is Illuminated
Oct 23
Waning Crescent
Oct 27
New
Nov 4
First Quarter
Nov 12
Full
Nov 19
Last Quarter

Hourly Weather History & Observations

Time (CDT) Temp. Dew Point Humidity Pressure Visibility Wind Dir Wind Speed Gust Speed Precip Events Conditions
12:15 AM 56.5 °F 39.7 °F 54% 30.11 in 10.0 mi SSE 5.8 mph - N/A   Clear
12:35 AM 56.8 °F 40.3 °F 54% 30.11 in 10.0 mi SSE 6.9 mph - N/A   Clear
12:55 AM 56.1 °F 40.5 °F 56% 30.11 in 10.0 mi SSE 5.8 mph - N/A   Clear
1:15 AM 56.3 °F 40.5 °F 55% 30.11 in 10.0 mi SSE 5.8 mph - N/A   Clear
1:35 AM 55.4 °F 40.8 °F 58% 30.11 in 10.0 mi SSE 5.8 mph - N/A   Clear
1:55 AM 54.9 °F 41.4 °F 60% 30.11 in 10.0 mi SSE 5.8 mph - N/A   Clear
2:15 AM 54.5 °F 41.4 °F 61% 30.11 in 10.0 mi SSE 4.6 mph - N/A   Clear
2:35 AM 52.9 °F 42.1 °F 67% 30.11 in 10.0 mi SSE 4.6 mph - N/A   Clear
2:55 AM 52.9 °F 42.3 °F 67% 30.11 in 10.0 mi South 4.6 mph - N/A   Clear
3:15 AM 52.3 °F 42.8 °F 70% 30.11 in 10.0 mi SSE 3.5 mph - N/A   Clear
3:35 AM 52.0 °F 42.1 °F 69% 30.11 in 10.0 mi South 5.8 mph - N/A   Clear
3:55 AM 52.0 °F 41.9 °F 69% 30.10 in 10.0 mi SSE 5.8 mph - N/A   Clear
4:15 AM 52.7 °F 42.1 °F 67% 30.09 in 10.0 mi SSE 6.9 mph - N/A   Clear
4:35 AM 52.2 °F 42.1 °F 69% 30.09 in 10.0 mi SSE 5.8 mph - N/A   Clear
4:55 AM 51.6 °F 42.1 °F 70% 30.10 in 10.0 mi SSE 5.8 mph - N/A   Clear
5:15 AM 51.8 °F 42.3 °F 70% 30.10 in 10.0 mi SSE 5.8 mph - N/A   Clear
5:35 AM 51.4 °F 42.6 °F 72% 30.10 in 10.0 mi SSE 5.8 mph - N/A   Clear
5:55 AM 50.9 °F 42.8 °F 74% 30.10 in 10.0 mi SSE 5.8 mph - N/A   Clear
6:15 AM 50.7 °F 42.8 °F 74% 30.10 in 10.0 mi SSE 5.8 mph - N/A   Clear
6:35 AM 51.1 °F 42.8 °F 73% 30.10 in 10.0 mi SSE 5.8 mph - N/A   Clear
6:55 AM 51.4 °F 42.8 °F 72% 30.10 in 10.0 mi SSE 5.8 mph - N/A   Clear
7:15 AM 50.9 °F 42.6 °F 73% 30.10 in 10.0 mi SSE 4.6 mph - N/A   Clear
7:55 AM 52.7 °F 42.8 °F 69% 30.10 in 10.0 mi SSE 5.8 mph - N/A   Clear
8:15 AM 53.8 °F 43.7 °F 69% 30.10 in 10.0 mi SSE 8.1 mph - N/A   Clear
8:35 AM 55.8 °F 44.2 °F 65% 30.10 in 10.0 mi SSE 8.1 mph - N/A   Clear
8:55 AM 57.9 °F 44.6 °F 61% 30.11 in 10.0 mi SSE 10.4 mph - N/A   Clear
9:15 AM 59.9 °F 45.7 °F 59% 30.12 in 10.0 mi SSE 9.2 mph 17.3 mph N/A   Clear
9:55 AM 64.2 °F 46.6 °F 53% 30.12 in 10.0 mi South 13.8 mph - N/A   Clear
10:15 AM 67.1 °F 46.6 °F 48% 30.12 in 10.0 mi South 15.0 mph 20.7 mph N/A   Clear
10:35 AM 69.1 °F 47.7 °F 46% 30.11 in 10.0 mi SSE 13.8 mph 21.9 mph N/A   Clear
10:55 AM 71.2 °F 48.4 °F 44% 30.11 in 10.0 mi SSE 13.8 mph 23.0 mph N/A   Clear
11:15 AM 73.4 °F 50.2 °F 44% 30.10 in 10.0 mi South 16.1 mph 25.3 mph N/A   Clear
11:35 AM 74.1 °F 50.9 °F 44% 30.09 in 10.0 mi SSE 17.3 mph 26.5 mph N/A   Clear
11:55 AM 75.2 °F 52.3 °F 45% 30.09 in 10.0 mi South 20.7 mph 26.5 mph N/A   Clear
12:15 PM 76.1 °F 53.4 °F 45% 30.08 in 10.0 mi SSE 17.3 mph 28.8 mph N/A   Clear
12:35 PM 77.0 °F 53.8 °F 44% 30.07 in 10.0 mi South 20.7 mph 29.9 mph N/A   Clear
12:55 PM 77.7 °F 52.5 °F 41% 30.06 in 10.0 mi South 20.7 mph 29.9 mph N/A   Clear
1:15 PM 78.1 °F 52.2 °F 40% 30.05 in 10.0 mi South 18.4 mph 26.5 mph N/A   Clear
1:35 PM 79.2 °F 52.0 °F 39% 30.03 in 10.0 mi SSE 15.0 mph 26.5 mph N/A   Clear
1:55 PM 79.7 °F 51.6 °F 38% 30.02 in 10.0 mi SSE 15.0 mph 29.9 mph N/A   Clear
2:15 PM 80.1 °F 50.2 °F 35% 30.01 in 10.0 mi South 16.1 mph 26.5 mph N/A   Clear
2:35 PM 80.6 °F 50.5 °F 35% 30.00 in 10.0 mi South 13.8 mph 25.3 mph N/A   Clear
2:55 PM 80.8 °F 50.5 °F 35% 29.99 in 10.0 mi SSW 19.6 mph 25.3 mph N/A   Clear
3:15 PM 80.6 °F 50.4 °F 35% 29.98 in 10.0 mi SSE 16.1 mph 26.5 mph N/A   Clear
3:35 PM 81.0 °F 50.9 °F 35% 29.97 in 10.0 mi SSE 17.3 mph 26.5 mph N/A   Clear
3:55 PM 80.8 °F 50.4 °F 35% 29.97 in 10.0 mi South 18.4 mph 31.1 mph N/A   Clear
4:15 PM 81.0 °F 50.5 °F 35% 29.96 in 10.0 mi SSE 17.3 mph 25.3 mph N/A   Clear
4:35 PM 81.0 °F 51.1 °F 35% 29.96 in 10.0 mi SSE 16.1 mph 24.2 mph N/A   Clear
4:55 PM 81.1 °F 51.6 °F 36% 29.95 in 10.0 mi SSE 15.0 mph 24.2 mph N/A   Clear
5:15 PM 80.2 °F 50.9 °F 36% 29.95 in 10.0 mi SSE 12.7 mph 24.2 mph N/A   Clear
5:35 PM 79.9 °F 51.4 °F 37% 29.95 in 10.0 mi SSE 16.1 mph 25.3 mph N/A   Clear
5:55 PM 79.0 °F 52.0 °F 39% 29.95 in 10.0 mi SSE 10.4 mph 25.3 mph N/A   Clear
6:15 PM 77.9 °F 52.0 °F 40% 29.95 in 10.0 mi SSE 11.5 mph 17.3 mph N/A   Clear
6:35 PM 76.3 °F 52.7 °F 44% 29.95 in 10.0 mi SSE 8.1 mph - N/A   Clear
7:15 PM 74.3 °F 52.7 °F 47% 29.96 in 10.0 mi SSE 8.1 mph - N/A   Clear
7:35 PM 73.6 °F 52.7 °F 48% 29.97 in 10.0 mi SE 6.9 mph - N/A   Clear
7:55 PM 72.5 °F 52.7 °F 50% 29.97 in 10.0 mi SE 8.1 mph 16.1 mph N/A   Clear
8:15 PM 71.8 °F 53.1 °F 52% 29.98 in 10.0 mi SE 9.2 mph - N/A   Clear
8:35 PM 71.2 °F 53.6 °F 54% 29.99 in 10.0 mi SSE 12.7 mph 18.4 mph N/A   Clear
8:55 PM 70.9 °F 54.5 °F 56% 29.99 in 10.0 mi SSE 16.1 mph 24.2 mph N/A   Clear
9:15 PM 70.3 °F 54.7 °F 58% 30.00 in 10.0 mi SE 10.4 mph 23.0 mph N/A   Clear
9:35 PM 69.4 °F 54.9 °F 60% 30.00 in 10.0 mi SE 12.7 mph 19.6 mph N/A   Clear
9:55 PM 68.9 °F 54.9 °F 61% 30.01 in 10.0 mi SSE 10.4 mph 18.4 mph N/A   Clear
10:15 PM 68.4 °F 55.0 °F 62% 30.02 in 10.0 mi SSE 15.0 mph 20.7 mph N/A   Clear
10:35 PM 67.8 °F 55.4 °F 64% 30.02 in 10.0 mi SSE 11.5 mph 20.7 mph N/A   Clear
10:55 PM 67.1 °F 55.4 °F 66% 30.03 in 10.0 mi SE 11.5 mph 17.3 mph N/A   Clear
11:15 PM 66.6 °F 55.6 °F 68% 30.03 in 10.0 mi SSE 11.5 mph 18.4 mph N/A   Clear
11:35 PM 66.2 °F 55.6 °F 69% 30.03 in 10.0 mi SSE 13.8 mph 20.7 mph N/A   Clear
11:55 PM 65.7 °F 55.8 °F 70% 30.03 in 10.0 mi SSE 11.5 mph 19.6 mph N/A   Clear